Tracking 19709 objects as of 17-Jun-2019
HD Live streaming from Space Station
objects crossing your sky now

ARIANE 5 R/B

Track ARIANE 5 R/B now!


NORAD ID: 33276
Int'l Code: 2008-038C
Perigee: 313.2 km
Apogee: 33,644.0 km
Inclination: 1.9 °
Period: 591.8 minutes
Semi major axis: 23349 km
RCS: 23.7749 m2 (large)
Launch date: August 14, 2008
Source: France (FR)
Launch site: FRENCH GUIANA (FRGUI)

Note: This is a ROCKET BODY
aabbcc
Your satellite tracking list
Your tracking list is empty




NASA's NSSDC Master Catalog

Two Line Element Set (TLE):
1 33276U 08038C   19167.63345288 +.00000469 +00000-0 +14370-3 0  9990
2 33276 001.9203 204.9868 7137356 333.8230 003.3029 02.43323313093091
Source of the keplerian elements: AFSPC